| time (UTC) | temp C | wind direction | speed KPH | gust KPH | rain 1hr cm | rain 24hr cm | rain mn cm | humidity % | barometer mb |
| 20260504202320 | 15 | 181 | 16.1 | 25.7 | 0.00 | 0.00 | 0.00 | 73 | 1010.7 |
| 20260504201816 | 15 | 189 | 22.5 | 35.4 | 0.00 | 0.00 | 0.00 | 73 | 1010.8 |
| 20260504201314 | 15 | 196 | 17.7 | 35.4 | 0.00 | 0.00 | 0.00 | 74 | 1010.7 |
| 20260504200811 | 15 | 176 | 20.9 | 32.2 | 0.00 | 0.00 | 0.00 | 73 | 1010.7 |
| 20260504200308 | 15 | 187 | 19.3 | 33.8 | 0.00 | 0.00 | 0.00 | 73 | 1010.7 |
| 20260504195804 | 15 | 199 | 25.7 | 35.4 | 0.00 | 0.00 | 0.00 | 72 | 1010.6 |
| 20260504195300 | 15 | 186 | 14.5 | 29.0 | 0.00 | 0.00 | 0.00 | 72 | 1010.9 |
| 20260504194757 | 15 | 186 | 17.7 | 30.6 | 0.00 | 0.00 | 0.00 | 72 | 1010.8 |
| 20260504194253 | 15 | 198 | 20.9 | 33.8 | 0.00 | 0.00 | 0.00 | 72 | 1010.9 |
| 20260504193749 | 15 | 204 | 16.1 | 27.4 | 0.00 | 0.00 | 0.00 | 72 | 1011.0 |
| 20260504193247 | 15 | 195 | 14.5 | 32.2 | 0.00 | 0.00 | 0.00 | 72 | 1011.0 |
| 20260504192745 | 15 | 185 | 11.3 | 33.8 | 0.00 | 0.00 | 0.00 | 73 | 1011.0 |
| 20260504192243 | 15 | 185 | 19.3 | 29.0 | 0.00 | 0.00 | 0.00 | 73 | 1011.3 |
| 20260504191741 | 15 | 199 | 24.1 | 29.0 | 0.00 | 0.00 | 0.00 | 72 | 1011.2 |
| 20260504191238 | 15 | 178 | 16.1 | 29.0 | 0.00 | 0.00 | 0.00 | 72 | 1011.1 |
| 20260504190733 | 15 | 197 | 14.5 | 35.4 | 0.00 | 0.00 | 0.00 | 71 | 1011.4 |
| 20260504190230 | 15 | 188 | 20.9 | 27.4 | 0.00 | 0.00 | 0.00 | 70 | 1011.5 |
| 20260504185726 | 16 | 184 | 17.7 | 24.1 | 0.00 | 0.00 | 0.00 | 69 | 1011.5 |
| 20260504185223 | 16 | 201 | 14.5 | 35.4 | 0.00 | 0.00 | 0.00 | 68 | 1011.5 |
| 20260504184719 | 16 | 178 | 16.1 | 27.4 | 0.00 | 0.00 | 0.00 | 68 | 1011.5 |
| 20260504184215 | 16 | 192 | 11.3 | 27.4 | 0.00 | 0.00 | 0.00 | 68 | 1011.6 |
| 20260504183711 | 16 | 191 | 11.3 | 22.5 | 0.00 | 0.00 | 0.00 | 67 | 1011.5 |
| 20260504183208 | 15 | 212 | 32.2 | 33.8 | 0.00 | 0.00 | 0.00 | 69 | 1011.6 |
| 20260504182707 | 15 | 216 | 17.7 | 38.6 | 0.00 | 0.00 | 0.00 | 70 | 1011.7 |
| 20260504182203 | 15 | 194 | 24.1 | 30.6 | 0.00 | 0.00 | 0.00 | 69 | 1011.7 |
| 20260504181701 | 15 | 197 | 17.7 | 32.2 | 0.00 | 0.00 | 0.00 | 70 | 1011.8 |
| 20260504181158 | 15 | 174 | 11.3 | 24.1 | 0.00 | 0.00 | 0.00 | 70 | 1011.9 |
| 20260504180657 | 15 | 205 | 20.9 | 30.6 | 0.00 | 0.00 | 0.00 | 69 | 1012.0 |
| 20260504180155 | 15 | 209 | 24.1 | 30.6 | 0.00 | 0.00 | 0.00 | 68 | 1012.1 |
| 20260504175652 | 15 | 204 | 17.7 | 35.4 | 0.00 | 0.00 | 0.00 | 69 | 1011.9 |
| 20260504175149 | 16 | 200 | 20.9 | 29.0 | 0.00 | 0.00 | 0.00 | 68 | 1012.0 |
| 20260504174647 | 15 | 214 | 24.1 | 29.0 | 0.00 | 0.00 | 0.00 | 69 | 1012.1 |
| 20260504174144 | 15 | 191 | 8.0 | 32.2 | 0.00 | 0.00 | 0.00 | 71 | 1012.0 |
| 20260504173641 | 15 | 212 | 19.3 | 35.4 | 0.00 | 0.00 | 0.00 | 70 | 1012.1 |
| 20260504173138 | 15 | 195 | 11.3 | 29.0 | 0.00 | 0.00 | 0.00 | 71 | 1012.1 |
| 20260504172635 | 15 | 211 | 19.3 | 33.8 | 0.00 | 0.00 | 0.00 | 70 | 1012.1 |
| 20260504172131 | 15 | 181 | 16.1 | 22.5 | 0.00 | 0.00 | 0.00 | 70 | 1012.3 |
| 20260504171628 | 15 | 208 | 22.5 | 22.5 | 0.00 | 0.00 | 0.00 | 69 | 1012.4 |
| 20260504171125 | 15 | 186 | 16.1 | 27.4 | 0.00 | 0.00 | 0.00 | 71 | 1012.3 |
| 20260504170621 | 15 | 201 | 11.3 | 29.0 | 0.00 | 0.00 | 0.00 | 71 | 1012.6 |
| 20260504170119 | 15 | 199 | 17.7 | 29.0 | 0.00 | 0.00 | 0.00 | 70 | 1012.5 |
| 20260504151004 | 15 | 217 | 6.4 | 25.7 | 0.00 | 0.00 | 0.00 | 64 | 1013.9 |
| 20260504150502 | 15 | 208 | 4.8 | 16.1 | 0.00 | 0.00 | 0.00 | 62 | 1013.9 |
| 20260504140927 | 14 | 211 | 4.8 | 20.9 | 0.00 | 0.00 | 0.00 | 66 | 1014.1 |
| 20260504140424 | 15 | 210 | 17.7 | 22.5 | 0.00 | 0.00 | 0.00 | 64 | 1013.9 |
| 20260504130349 | 13 | 211 | 14.5 | 20.9 | 0.00 | 0.00 | 0.00 | 63 | 1014.4 |
| 20260504120312 | 12 | 235 | 20.9 | 20.9 | 0.00 | 0.00 | 0.00 | 66 | 1014.8 |
| 20260504110236 | 11 | 242 | 8.0 | 16.1 | 0.00 | 0.00 | 0.00 | 68 | 1014.8 |
| 20260504100154 | 10 | 208 | 11.3 | 14.5 | 0.00 | 0.00 | 0.00 | 74 | 1014.4 |
| 20260504090116 | 10 | 266 | 3.2 | 11.3 | 0.00 | 0.00 | 0.00 | 63 | 1014.1 |
| 20260504081547 | 10 | 250 | 4.8 | 9.7 | 0.00 | 0.00 | 0.00 | 67 | 1013.9 |
| 20260504081042 | 10 | 251 | 6.4 | 9.7 | 0.00 | 0.00 | 0.00 | 66 | 1014.1 |
| 20260504080539 | 10 | 229 | 11.3 | 12.9 | 0.00 | 0.00 | 0.00 | 66 | 1014.0 |
| 20260504050352 | 10 | 219 | 1.6 | 8.0 | 0.00 | 0.00 | 0.00 | 73 | 1013.2 |
| 20260504045849 | 10 | 218 | 6.4 | 14.5 | 0.00 | 0.00 | 0.00 | 73 | 1013.1 |
| 20260504045344 | 10 | 234 | 8.0 | 9.7 | 0.00 | 0.00 | 0.00 | 72 | 1013.2 |
| 20260504044841 | 10 | 212 | 6.4 | 11.3 | 0.00 | 0.00 | 0.00 | 71 | 1013.3 |
| 20260504044339 | 10 | 220 | 9.7 | 11.3 | 0.00 | 0.00 | 0.00 | 73 | 1013.2 |
| 20260504043836 | 10 | 225 | 9.7 | 12.9 | 0.00 | 0.00 | 0.00 | 73 | 1013.1 |
| 20260504043332 | 11 | 216 | 11.3 | 11.3 | 0.00 | 0.00 | 0.00 | 72 | 1013.2 |
| 20260504042830 | 11 | 220 | 8.0 | 8.0 | 0.00 | 0.00 | 0.00 | 66 | 1013.1 |
| 20260504042326 | 11 | 224 | 8.0 | 9.7 | 0.00 | 0.00 | 0.00 | 65 | 1013.1 |
| 20260504041823 | 11 | 226 | 6.4 | 12.9 | 0.00 | 0.00 | 0.00 | 62 | 1013.0 |
| 20260504041319 | 11 | 238 | 4.8 | 12.9 | 0.00 | 0.00 | 0.00 | 62 | 1012.8 |
| 20260504040815 | 11 | 227 | 9.7 | 14.5 | 0.00 | 0.00 | 0.00 | 66 | 1013.0 |
| 20260504040313 | 11 | 222 | 8.0 | 9.7 | 0.00 | 0.00 | 0.00 | 69 | 1013.0 |
| 20260504035809 | 11 | 247 | 6.4 | 12.9 | 0.00 | 0.00 | 0.00 | 70 | 1012.8 |
| 20260504035306 | 11 | 223 | 8.0 | 12.9 | 0.00 | 0.00 | 0.00 | 70 | 1012.8 |
| 20260504034803 | 11 | 230 | 3.2 | 8.0 | 0.00 | 0.00 | 0.00 | 69 | 1012.7 |
| 20260504034301 | 11 | 260 | 4.8 | 11.3 | 0.00 | 0.00 | 0.00 | 68 | 1012.8 |
| 20260504033758 | 11 | 230 | 8.0 | 11.3 | 0.00 | 0.00 | 0.00 | 67 | 1012.8 |
| 20260504033255 | 11 | 218 | 6.4 | 17.7 | 0.00 | 0.00 | 0.00 | 66 | 1012.8 |
| 20260504032752 | 11 | 231 | 8.0 | 14.5 | 0.00 | 0.00 | 0.00 | 69 | 1012.8 |
| 20260504032249 | 11 | 194 | 8.0 | 12.9 | 0.00 | 0.00 | 0.00 | 71 | 1012.7 |
| 20260504031746 | 11 | 235 | 4.8 | 8.0 | 0.00 | 0.00 | 0.00 | 62 | 1012.6 |
| 20260504031243 | 11 | 229 | 6.4 | 14.5 | 0.00 | 0.00 | 0.00 | 60 | 1012.7 |
| 20260504030739 | 11 | 249 | 6.4 | 9.7 | 0.00 | 0.00 | 0.00 | 59 | 1012.7 |
| 20260504030237 | 11 | 249 | 8.0 | 9.7 | 0.00 | 0.00 | 0.00 | 59 | 1012.8 |
| 20260504025733 | 11 | 239 | 3.2 | 8.0 | 0.00 | 0.00 | 0.00 | 61 | 1012.8 |
| 20260504025230 | 12 | 233 | 8.0 | 12.9 | 0.00 | 0.00 | 0.00 | 59 | 1012.9 |
| 20260504024727 | 12 | 245 | 6.4 | 14.5 | 0.00 | 0.00 | 0.00 | 59 | 1012.8 |
| 20260504024223 | 12 | 246 | 4.8 | 16.1 | 0.00 | 0.00 | 0.00 | 61 | 1013.1 |
| 20260504023720 | 11 | 246 | 6.4 | 12.9 | 0.00 | 0.00 | 0.00 | 63 | 1012.7 |
| 20260504023216 | 11 | 213 | 9.7 | 11.3 | 0.00 | 0.00 | 0.00 | 64 | 1012.7 |
| 20260504022712 | 12 | 235 | 8.0 | 14.5 | 0.00 | 0.00 | 0.00 | 68 | 1012.7 |
| 20260504022208 | 12 | 222 | 9.7 | 9.7 | 0.00 | 0.00 | 0.00 | 64 | 1012.7 |
| 20260504021706 | 12 | 219 | 6.4 | 8.0 | 0.00 | 0.00 | 0.00 | 61 | 1012.9 |
| 20260504021203 | 12 | 240 | 4.8 | 12.9 | 0.00 | 0.00 | 0.00 | 60 | 1012.8 |
| 20260504020700 | 12 | 230 | 8.0 | 11.3 | 0.00 | 0.00 | 0.00 | 61 | 1012.7 |
| 20260504020155 | 12 | 248 | 6.4 | 8.0 | 0.00 | 0.00 | 0.00 | 63 | 1012.6 |
| 20260504015652 | 12 | 229 | 9.7 | 11.3 | 0.00 | 0.00 | 0.00 | 64 | 1012.6 |
| 20260504015149 | 12 | 228 | 4.8 | 9.7 | 0.00 | 0.00 | 0.00 | 63 | 1012.6 |
| 20260504014644 | 12 | 230 | 6.4 | 8.0 | 0.00 | 0.00 | 0.00 | 61 | 1012.7 |
| 20260504014142 | 12 | 237 | 6.4 | 8.0 | 0.00 | 0.00 | 0.00 | 59 | 1012.6 |
| 20260504013639 | 12 | 228 | 3.2 | 9.7 | 0.00 | 0.00 | 0.00 | 57 | 1012.5 |
| 20260504013136 | 12 | 237 | 4.8 | 8.0 | 0.00 | 0.00 | 0.00 | 57 | 1012.5 |
| 20260504012633 | 12 | 210 | 4.8 | 8.0 | 0.00 | 0.00 | 0.00 | 59 | 1012.2 |
| 20260504012131 | 12 | 232 | 4.8 | 6.4 | 0.00 | 0.00 | 0.00 | 57 | 1012.5 |
| 20260504011628 | 12 | 210 | 4.8 | 8.0 | 0.00 | 0.00 | 0.00 | 54 | 1012.4 |
| 20260504011124 | 12 | 239 | 4.8 | 8.0 | 0.00 | 0.00 | 0.00 | 53 | 1012.3 |
| 20260504010620 | 12 | 228 | 3.2 | 8.0 | 0.00 | 0.00 | 0.00 | 50 | 1012.1 |
| 20260504010116 | 12 | 222 | 4.8 | 8.0 | 0.00 | 0.00 | 0.00 | 50 | 1011.9 |
| 20260504005613 | 12 | 213 | 11.3 | 14.5 | 0.00 | 0.00 | 0.00 | 46 | 1011.9 |
| 20260504005110 | 13 | 216 | 3.2 | 4.8 | 0.00 | 0.00 | 0.00 | 38 | 1011.9 |
| 20260504004608 | 13 | 236 | 1.6 | 3.2 | 0.00 | 0.00 | 0.00 | 38 | 1011.8 |
| 20260504004105 | 13 | 233 | 0.0 | 3.2 | 0.00 | 0.00 | 0.00 | 37 | 1011.6 |
| 20260504003601 | 13 | 244 | 3.2 | 3.2 | 0.00 | 0.00 | 0.00 | 36 | 1011.6 |
| 20260504003058 | 13 | 261 | 3.2 | 6.4 | 0.00 | 0.00 | 0.00 | 35 | 1011.7 |
| 20260504002555 | 13 | 230 | 3.2 | 3.2 | 0.00 | 0.00 | 0.00 | 35 | 1011.7 |
| 20260504002053 | 13 | 264 | 4.8 | 4.8 | 0.00 | 0.00 | 0.00 | 35 | 1011.4 |
| 20260504001550 | 13 | 270 | 3.2 | 4.8 | 0.00 | 0.00 | 0.00 | 34 | 1011.4 |
| 20260504001046 | 13 | 274 | 3.2 | 6.4 | 0.00 | 0.00 | 0.00 | 34 | 1011.4 |
| 20260504000543 | 14 | 246 | 4.8 | 6.4 | 0.00 | 0.00 | 0.00 | 34 | 1011.2 |
| 20260504000041 | 14 | 291 | 3.2 | 8.0 | 0.00 | 0.00 | 0.00 | 33 | 1011.4 |
| 20260503235539 | 14 | 272 | 3.2 | 9.7 | 0.00 | 0.00 | 0.00 | 33 | 1011.1 |
| 20260503235035 | 14 | 290 | 8.0 | 16.1 | 0.00 | 0.00 | 0.00 | 32 | 1011.3 |
| 20260503234533 | 14 | 280 | 6.4 | 9.7 | 0.00 | 0.00 | 0.00 | 32 | 1011.0 |
| 20260503234031 | 14 | 305 | 4.8 | 8.0 | 0.00 | 0.00 | 0.00 | 32 | 1011.0 |
| 20260503233527 | 15 | 346 | 6.4 | 19.3 | 0.00 | 0.00 | 0.00 | 31 | 1011.1 |
| 20260503233023 | 15 | 313 | 4.8 | 17.7 | 0.00 | 0.00 | 0.00 | 31 | 1010.8 |
| 20260503232520 | 15 | 322 | 3.2 | 14.5 | 0.00 | 0.00 | 0.00 | 31 | 1010.7 |
| 20260503232018 | 15 | 297 | 3.2 | 14.5 | 0.00 | 0.00 | 0.00 | 30 | 1010.8 |
| 20260503231516 | 15 | 304 | 4.8 | 14.5 | 0.00 | 0.00 | 0.00 | 30 | 1010.7 |
| 20260503231012 | 15 | 337 | 14.5 | 20.9 | 0.00 | 0.00 | 0.00 | 30 | 1010.7 |
| 20260503230509 | 15 | 289 | 11.3 | 25.7 | 0.00 | 0.00 | 0.00 | 29 | 1010.6 |
| 20260503230006 | 15 | 269 | 8.0 | 14.5 | 0.00 | 0.00 | 0.00 | 30 | 1010.7 |
| 20260503225503 | 15 | 310 | 11.3 | 24.1 | 0.00 | 0.00 | 0.00 | 29 | 1010.8 |
| 20260503224958 | 15 | 302 | 14.5 | 29.0 | 0.00 | 0.00 | 0.00 | 29 | 1010.6 |
| 20260503224455 | 15 | 290 | 12.9 | 27.4 | 0.00 | 0.00 | 0.00 | 29 | 1010.6 |
| 20260503223953 | 15 | 300 | 14.5 | 27.4 | 0.00 | 0.00 | 0.00 | 29 | 1010.6 |
| 20260503223451 | 15 | 302 | 9.7 | 32.2 | 0.00 | 0.00 | 0.00 | 29 | 1010.7 |
| 20260503222946 | 15 | 276 | 22.5 | 32.2 | 0.00 | 0.00 | 0.00 | 29 | 1010.5 |
| 20260503222445 | 15 | 301 | 20.9 | 25.7 | 0.00 | 0.00 | 0.00 | 29 | 1010.5 |
| 20260503221943 | 15 | 312 | 12.9 | 30.6 | 0.00 | 0.00 | 0.00 | 29 | 1010.6 |
| 20260503221441 | 15 | 293 | 20.9 | 22.5 | 0.00 | 0.00 | 0.00 | 29 | 1010.6 |
| 20260503220937 | 15 | 318 | 9.7 | 22.5 | 0.00 | 0.00 | 0.00 | 30 | 1010.4 |
| 20260503220433 | 16 | 274 | 20.9 | 22.5 | 0.00 | 0.00 | 0.00 | 30 | 1010.5 |
| 20260503215931 | 16 | 345 | 8.0 | 17.7 | 0.00 | 0.00 | 0.00 | 30 | 1010.1 |
| 20260503215428 | 16 | 278 | 22.5 | 29.0 | 0.00 | 0.00 | 0.00 | 29 | 1010.6 |
| 20260503214925 | 16 | 285 | 22.5 | 38.6 | 0.00 | 0.00 | 0.00 | 30 | 1010.4 |
| 20260503214423 | 15 | 309 | 6.4 | 32.2 | 0.00 | 0.00 | 0.00 | 30 | 1010.3 |
| 20260503213920 | 15 | 274 | 20.9 | 38.6 | 0.00 | 0.00 | 0.00 | 30 | 1010.4 |
| 20260503213418 | 15 | 304 | 19.3 | 37.0 | 0.00 | 0.00 | 0.00 | 30 | 1010.2 |
| 20260503212914 | 16 | 308 | 16.1 | 20.9 | 0.00 | 0.00 | 0.00 | 30 | 1010.2 |
| 20260503212412 | 15 | 331 | 16.1 | 33.8 | 0.00 | 0.00 | 0.00 | 31 | 1010.4 |
| 20260503211909 | 16 | 307 | 16.1 | 24.1 | 0.00 | 0.00 | 0.00 | 30 | 1010.4 |
| 20260503211406 | 16 | 324 | 4.8 | 16.1 | 0.00 | 0.00 | 0.00 | 31 | 1010.1 |
| 20260503210901 | 15 | 322 | 12.9 | 33.8 | 0.00 | 0.00 | 0.00 | 30 | 1010.3 |
| 20260503210359 | 16 | 276 | 16.1 | 17.7 | 0.00 | 0.00 | 0.00 | 30 | 1010.0 |
| 20260503205853 | 16 | 296 | 12.9 | 14.5 | 0.00 | 0.00 | 0.00 | 31 | 1010.2 |
| 20260503205350 | 15 | 334 | 8.0 | 29.0 | 0.00 | 0.00 | 0.00 | 31 | 1010.1 |
| 20260503204846 | 16 | 266 | 14.5 | 29.0 | 0.00 | 0.00 | 0.00 | 31 | 1010.2 |
| 20260503204344 | 15 | 319 | 4.8 | 24.1 | 0.00 | 0.00 | 0.00 | 31 | 1010.3 |
| 20260503203841 | 15 | 330 | 25.7 | 46.7 | 0.00 | 0.00 | 0.00 | 31 | 1010.3 |
| 20260503203338 | 15 | 289 | 12.9 | 27.4 | 0.00 | 0.00 | 0.00 | 32 | 1010.1 |
| 20260503202835 | 15 | 310 | 22.5 | 32.2 | 0.00 | 0.00 | 0.00 | 32 | 1010.0 |